Location: De Har
(53.3413°N, 6.6858°E)
Time: 20:20:58
(UTC+00:00)

USA 281 - Pass Details

Date: 22 April 2026
Orbit: 1079 x 1080 km, 106.0° (Epoch: 5 January)

Event Time Altitude Azimuth Distance (km) Brightness Sun altitude
Exits shadow 02:38:17 18° 219° (SW) 2,398 4.4 -13.4°
Maximum altitude 02:41:36 26° 259° (W) 1,994 4.2 -13.0°
Drops below altitude 10° 02:46:58 10° 314° (NW) 2,931 5.5 -12.4°
Sets 02:50:00 0° 327° (NNW) 3,892 6.2 -12.1°
